Flag for Australia Weather past 2 weeks in Traralgon, Victoria, Australia

Now
56 °F

Passing clouds.


Feels Like: 55 °F
Forecast: 37 / 58 °F
Wind: 7 mph from West

Location: Latrobe Valley Airport

Current Time: Sep 3, 2014 at 2:00:18 PM

Latest Report: Sep 3, 2014 at 12:00 PM


Visibility: N/A

Pressure: 30.15 "Hg

Humidity: 61%

Dew point: 43 °F

Location of TraralgonLocation

Historic Weather in Traralgon — Graph

°F

Traralgon temperature yesterday

Maximum temperature yesterday: 55 °F (at 3:00 PM)
Minimum temperature yesterday: 41 °F (at 11:00 PM)
Average temperature yesterday: 49 °F

Past Weeks' High & Low Weather Summary

 TemperatureHumidityPressure
High68 °F (Aug 31, 2:00 PM)100% (Aug 20, 5:00 AM)30.49 "Hg (Aug 20, 5:00 AM)
Low37 °F (Aug 28, 6:00 AM)49% (Aug 22, 3:00 PM)29.74 "Hg (Sep 1, 12:00 PM)
Average51 °F88%30.26 "Hg
* Reported Aug 19 12:00 Noon — Sep 3 12:00 Noon, Traralgon, Weather by CustomWeather, © 2014

Note: Actual official high and low records may vary slightly from our data, if they occured in-between our weather recording intervals... More about our weather records

Advertising

Traralgon weather history for previous 24 hours

 ConditionsComfort  
Time TempWeatherWind HumidityBarometerVisibility
12:00 PM
Sep 3
56 °FPassing clouds.7 mph61%30.15 "HgN/A
11:00 AM54 °FCool.10 mph64%30.17 "HgN/A
9:00 AM50 °FScattered clouds.10 mph80%30.21 "HgN/A
8:00 AM47 °FCool.9 mph91%30.20 "HgN/A
6:00 AM42 °FPassing clouds.9 mph100%30.18 "HgN/A
5:00 AM43 °FQuite cool.7 mph100%30.17 "HgN/A
3:00 AM41 °FPassing clouds.8 mph99%30.16 "HgN/A
2:00 AM41 °FQuite cool.1 mph100%30.16 "HgN/A
12:00 AM40 °FChilly.6 mph98%30.17 "HgN/A
11:00 PM
Sep 2
41 °FQuite cool.5 mph94%30.17 "HgN/A
9:00 PM42 °FQuite cool.6 mph86%30.17 "HgN/A
8:00 PM44 °FQuite cool.9 mph85%30.16 "HgN/A
6:00 PM46 °FCool.8 mph81%30.13 "HgN/A
5:00 PM53 °FCool.9 mph63%30.10 "HgN/A
3:00 PM55 °FScattered clouds.12 mph65%30.06 "HgN/A
2:00 PM54 °FCool.8 mph71%30.05 "HgN/A
Weather by CustomWeather, © 2014

See weather overviewHow to use our weather pages